Wichita Jabara, KS

11:43 AM CDT on August 21, 2017 (GMT -0500)
Col Jabara

Weather History for KAAO - October, 2012

Change the Weather History Date:

Wednesday, October 3, 2012

  Actual Average (KIAB) Record (KIAB)
Temperature  
Mean Temperature 64 °F -  
Max Temperature 80 °F 72 °F 95 °F (2006)
Min Temperature 48 °F 50 °F 42 °F (2010)
Degree Days  
Heating Degree Days 1    
Growing Degree Days 14 (Base 50)    
Moisture  
Dew Point 45 °F    
Average Humidity 55    
Maximum Humidity 71    
Minimum Humidity 31    
Precipitation  
Precipitation 0.00 in - - ()
Sea Level Pressure  
Sea Level Pressure 29.91 in    
Wind  
Wind Speed 8 mph (South)    
Max Wind Speed 20 mph    
Max Gust Speed 23 mph    
Visibility 10 miles    
Events      
Averages and records for this station are not official NWS values.
T = Trace of Precipitation, MM = Missing Value Source: NWS Daily Summary

Daily Weather History Graph

Daily Weather History Graph

Search for Another Location

Airport or City:

Trip Planner

Search our weather history database for the weather conditions in past years. The results will help you decide how hot, cold, wet, or windy it might be!

Date:

Astronomy

Oct. 03, 2012 Rise Set
Actual Time 7:26 AM CDT 7:08 PM CDT
Civil Twilight 7:00 AM CDT 7:34 PM CDT
Nautical Twilight 6:30 AM CDT 8:04 PM CDT
Astronomical Twilight 5:59 AM CDT 8:35 PM CDT
Moon 9:05 PM CDT (10/3) 10:46 AM CDT (10/3)
Length of Visible Light 12h 33m
Length of Day
11h 41m
Waning Gibbous, 88% of the Moon is Illuminated
Oct 3
Waning Gibbous
Oct 8
Last Quarter
Oct 15
New
Oct 21
First Quarter
Oct 29
Full

Hourly Weather History & Observations

Time (CDT) Temp. Dew Point Humidity Pressure Visibility Wind Dir Wind Speed Gust Speed Precip Events Conditions
12:54 AM 54.0 °F 39.0 °F 57% 29.91 in 10.0 mi South 4.6 mph - N/A   Clear
1:54 AM 53.1 °F 39.0 °F 59% 29.91 in 10.0 mi South 4.6 mph - N/A   Clear
2:54 AM 52.0 °F 39.9 °F 63% 29.92 in 10.0 mi South 5.8 mph - N/A   Clear
3:54 AM 51.1 °F 39.9 °F 66% 29.91 in 10.0 mi SSE 4.6 mph - N/A   Clear
4:54 AM 50.0 °F 39.0 °F 66% 29.92 in 10.0 mi South 4.6 mph - N/A   Clear
5:54 AM 48.9 °F 39.0 °F 69% 29.93 in 10.0 mi South 5.8 mph - N/A   Clear
6:54 AM 48.0 °F 39.0 °F 71% 29.94 in 10.0 mi South 4.6 mph - N/A   Clear
7:54 AM 48.0 °F 39.0 °F 71% 29.95 in 10.0 mi SSE 3.5 mph - N/A   Clear
8:54 AM 55.9 °F 46.0 °F 69% 29.95 in 10.0 mi SSE 5.8 mph - N/A   Clear
9:54 AM 64.0 °F 48.0 °F 56% 29.95 in 10.0 mi South 8.1 mph - N/A   Clear
10:54 AM 70.0 °F 48.0 °F 46% 29.94 in 10.0 mi South 15.0 mph 19.6 mph N/A   Clear
11:54 AM 73.0 °F 44.1 °F 35% 29.92 in 10.0 mi South 15.0 mph - N/A   Clear
12:54 PM 75.9 °F 44.1 °F 32% 29.90 in 10.0 mi South 19.6 mph 23.0 mph N/A   Clear
1:54 PM 77.0 °F 45.0 °F 32% 29.87 in 10.0 mi South 16.1 mph - N/A   Clear
3:54 PM 80.1 °F 46.9 °F 31% 29.83 in 10.0 mi South 13.8 mph 23.0 mph N/A   Clear
6:54 PM 73.9 °F 48.0 °F 40% 29.86 in 10.0 mi South 16.1 mph 21.9 mph N/A   Clear
7:54 PM 68.0 °F 48.9 °F 50% 29.88 in 10.0 mi South 8.1 mph - N/A   Clear
8:54 PM 66.9 °F 50.0 °F 54% 29.89 in 10.0 mi South 9.2 mph - N/A   Clear
9:54 PM 64.9 °F 51.1 °F 61% 29.90 in 10.0 mi South 9.2 mph - N/A   Clear
10:54 PM 66.0 °F 51.1 °F 59% 29.90 in 10.0 mi South 13.8 mph - N/A   Clear
11:54 PM 64.9 °F 51.1 °F 61% 29.92 in 10.0 mi South 10.4 mph - N/A   Clear